This is the latest recevied weather packets stored in our database for station/object OK2ILA-13. If no packets are shown the sender has not sent any weather packets the latest 1 day(s).
| Time | Temp. | Humidity | Pressure | Rain* | Wind** | Luminosity | Snow |
|---|---|---|---|---|---|---|---|
| 1778051674 | 19.44° C | 51% | 1008.5 hPa | - | - | - | - |
| 1778051074 | 18.33° C | 53% | 1008.6 hPa | - | - | - | - |
| 1778050474 | 18.89° C | 52% | 1008.6 hPa | - | - | - | - |
| 1778049875 | 18.33° C | 52% | 1008.4 hPa | - | - | - | - |
| 1778049275 | 17.78° C | 53% | 1008.4 hPa | - | - | - | - |
| 1778048675 | 16.67° C | 54% | 1008.3 hPa | - | - | - | - |
| 1778047476 | 13.89° C | 63% | 1008.2 hPa | - | - | - | - |
| 1778046876 | 13.33° C | 65% | 1008.2 hPa | - | - | - | - |
| 1778046277 | 12.78° C | 66% | 1008.1 hPa | - | - | - | - |
| 1778045677 | 12.78° C | 67% | 1008.3 hPa | - | - | - | - |
| 1778045077 | 12.22° C | 67% | 1008.3 hPa | - | - | - | - |
| 1778044478 | 12.22° C | 68% | 1008.2 hPa | - | - | - | - |
| 1778043878 | 11.67° C | 69% | 1007.9 hPa | - | - | - | - |
| 1778042678 | 11.67° C | 69% | 1007.8 hPa | - | - | - | - |
| 1778042078 | 11.11° C | 70% | 1007.7 hPa | - | - | - | - |
| 1778041478 | 11.11° C | 70% | 1007.6 hPa | - | - | - | - |
| 1778039679 | 10.56° C | 72% | 1007.3 hPa | - | - | - | - |
| 1778039080 | 10.56° C | 72% | 1007.2 hPa | - | - | - | - |
| 1778038480 | 10° C | 73% | 1007.1 hPa | - | - | - | - |
| 1778037281 | 9.44° C | 73% | 1007.1 hPa | - | - | - | - |
| 1778036681 | 10° C | 73% | 1007 hPa | - | - | - | - |
| 1778036081 | 10° C | 72% | 1007 hPa | - | - | - | - |
| 1778035482 | 10° C | 71% | 1007 hPa | - | - | - | - |
| 1778034882 | 10° C | 71% | 1007 hPa | - | - | - | - |
| 1778034282 | 10° C | 70% | 1007 hPa | - | - | - | - |
* Rain since midnight (hover to see other rain measurements)
** Current wind speed in m/s (hover to see current wind gust speed)